Tracking 35055 objects as of 18-Aug-2026
HD Live streaming from Space Station
objects crossing your sky now

SCOUT G-1 R/B

Track SCOUT G-1 R/B now!
10-day predictions


NORAD ID: 19072
Int'l Code: 1988-033C
Launch date: April 26, 1988
Source: United States (US)
Launch site: AIR FORCE WESTERN TEST RANGE (AFWTR)

Note: This is a ROCKET BODY
Your satellite tracking list
Your tracking list is empty




NASA's NSSDC Master Catalog

Two Line Element Set (TLE):
1 19072U 88033C   26229.92513196  .00000059  00000-0  10586-3 0  9995
2 19072  90.3304  24.0156 0187637 225.3827 302.4694 13.27504160855149
Source of the keplerian elements: AFSPC